FW8134 Weather Reports


Display with metric or nautical units.
time (UTC)temp
F
wind
direction
speed
MPH
gust
MPH
rain 1hr
in
rain 24hr
in
rain mn
in
humidity
%
barometer
mb
20260831191039 62 0.0 0.0 0.00 0.00 0.00 81 1001.8
20260831190040 63 0.0 0.0 0.00 0.00 0.00 80 1001.7
20260831185016 64 0.0 0.0 0.00 0.00 0.00 77 1001.5
20260831184037 65 0.0 0.0 0.00 0.00 0.00 74 1001.4
20260831183018 67 0.0 0.0 0.00 0.00 0.00 72 1001.3
20260831182040 67 0.0 0.0 0.00 0.00 0.00 67 1001.1
20260831181016 68 311 0.0 1.0 0.00 0.00 0.00 66 1001.0
20260831180037 69 210 0.0 4.0 0.00 0.00 0.00 64 1001.0
20260831175018 70 258 0.0 3.0 0.00 0.00 0.00 63 1000.8
20260831174019 70 264 1.0 4.0 0.00 0.00 0.00 62 1000.8
20260831173016 71 226 1.0 5.0 0.00 0.00 0.00 63 1000.7
20260831172017 71 223 1.0 4.0 0.00 0.00 0.00 62 1000.6
20260831171018 71 259 2.0 6.0 0.00 0.00 0.00 64 1000.5
20260831170019 71 241 1.0 10.0 0.00 0.00 0.00 67 1000.4
20260831165015 71 233 0.0 5.0 0.00 0.00 0.00 67 1000.4
20260831164016 71 246 1.0 7.0 0.00 0.00 0.00 67 1000.4
20260831163018 72 271 2.0 5.0 0.00 0.00 0.00 66 1000.3
20260831162019 71 244 2.0 7.0 0.00 0.00 0.00 65 1000.3
20260831161015 72 213 2.0 9.0 0.00 0.00 0.00 64 1000.3
20260831160016 72 224 3.0 12.0 0.00 0.00 0.00 63 1000.2
20260831155017 72 218 3.0 11.0 0.00 0.00 0.00 65 1000.2
20260831154019 70 233 3.0 8.0 0.00 0.00 0.00 68 1000.3
20260831153015 70 242 4.0 13.0 0.00 0.00 0.00 68 1000.3
20260831152016 70 255 2.0 7.0 0.00 0.00 0.00 73 1000.2
20260831151017 71 91 2.0 7.0 0.00 0.00 0.00 72 1000.1
20260831150019 71 253 1.0 4.0 0.00 0.00 0.00 72 1000.0
20260831145020 70 223 4.0 9.0 0.00 0.00 0.00 73 1000.0
20260831144020 68 208 2.0 5.0 0.00 0.00 0.00 77 1000.0
20260831143017 68 256 3.0 7.0 0.00 0.00 0.00 77 1000.1
20260831142038 71 303 4.0 15.0 0.00 0.00 0.00 71 999.9
20260831141039 72 236 2.0 8.0 0.00 0.00 0.00 68 999.6
20260831140020 72 336 3.0 7.0 0.00 0.00 0.00 68 999.4
20260831135016 72 215 2.0 6.0 0.00 0.00 0.00 69 999.4
20260831134018 71 260 2.0 5.0 0.00 0.00 0.00 70 999.3
20260831133019 70 286 2.0 5.0 0.00 0.00 0.00 71 999.4
20260831132020 69 248 2.0 5.0 0.00 0.00 0.00 74 999.4
20260831131016 69 234 2.0 9.0 0.00 0.00 0.00 72 999.5
20260831130017 72 292 3.0 13.0 0.00 0.00 0.00 65 999.3
20260831125019 73 224 4.0 13.0 0.00 0.00 0.00 63 998.9
20260831124040 73 248 5.0 14.0 0.00 0.00 0.00 63 998.8
20260831123016 73 222 4.0 15.0 0.00 0.00 0.00 64 998.7
20260831122017 72 212 5.0 15.0 0.00 0.00 0.00 65 998.7
20260831121018 72 239 5.0 10.0 0.00 0.00 0.00 64 998.7
20260831120020 72 214 5.0 12.0 0.00 0.00 0.00 65 998.7
20260831115016 70 237 5.0 11.0 0.00 0.00 0.00 67 998.8
20260831114017 71 222 4.0 14.0 0.00 0.00 0.00 66 998.6
20260831113018 70 216 3.0 13.0 0.00 0.00 0.00 68 998.7
20260831112019 70 229 3.0 8.0 0.00 0.00 0.00 69 998.6
20260831111020 70 239 4.0 11.0 0.00 0.00 0.00 68 998.5
20260831110017 69 241 4.0 12.0 0.00 0.00 0.00 70 998.3
20260831105018 69 218 5.0 13.0 0.00 0.00 0.00 70 998.3
20260831104039 69 250 3.0 11.0 0.00 0.00 0.00 70 998.2
20260831103020 70 231 5.0 14.0 0.00 0.00 0.00 67 998.2
20260831102037 71 212 5.0 15.0 0.00 0.00 0.00 68 998.1
20260831101017 70 222 4.0 14.0 0.00 0.00 0.00 68 998.0
20260831100039 70 232 5.0 15.0 0.00 0.00 0.00 69 998.0
20260831095020 69 229 4.0 15.0 0.00 0.00 0.00 70 997.9
20260831094016 68 222 5.0 16.0 0.00 0.01 0.00 73 997.9
20260831093037 68 236 4.0 11.0 0.00 0.01 0.00 72 997.8
20260831092018 68 225 5.0 12.0 0.00 0.01 0.00 73 997.8
20260831091020 68 229 5.0 14.0 0.00 0.01 0.00 74 997.6
20260831090015 68 218 5.0 12.0 0.00 0.01 0.00 76 997.6
20260831085016 67 217 7.0 14.0 0.00 0.01 0.00 78 997.4
20260831084018 66 213 5.0 10.0 0.00 0.01 0.00 81 997.4
20260831083018 66 213 5.0 12.0 0.00 0.01 0.00 79 997.4
20260831082020 66 215 5.0 14.0 0.00 0.01 0.00 80 997.2
20260831081015 66 206 4.0 13.0 0.00 0.01 0.00 82 997.2
20260831080016 64 214 5.0 10.0 0.00 0.01 0.00 84 997.0
20260831075017 63 211 4.0 14.0 0.00 0.01 0.00 86 997.0
20260831074039 63 207 2.0 7.0 0.00 0.01 0.00 88 996.9
20260831073019 63 209 2.0 8.0 0.00 0.01 0.00 88 996.9
20260831072035 63 216 5.0 13.0 0.00 0.01 0.00 89 996.8
20260831071016 62 210 2.0 6.0 0.00 0.01 0.00 90 996.8
20260831070017 62 223 4.0 12.0 0.00 0.01 0.00 87 996.6
20260831065018 63 215 6.0 17.0 0.00 0.01 0.00 85 996.4
20260831064019 63 202 5.0 11.0 0.00 0.01 0.00 85 996.3
20260831063015 62 211 4.0 12.0 0.00 0.01 0.00 86 996.3
20260831062016 62 207 5.0 14.0 0.00 0.01 0.00 86 996.3
20260831061018 62 207 4.0 11.0 0.00 0.01 0.00 87 996.2
20260831060019 62 210 4.0 9.0 0.00 0.01 0.00 88 996.2
20260831055020 61 217 3.0 9.0 0.00 0.01 0.00 90 996.1
20260831054016 61 219 3.0 7.0 0.00 0.01 0.00 90 995.9
20260831053037 61 214 4.0 8.0 0.00 0.01 0.00 90 995.9
20260831052018 61 198 3.0 9.0 0.00 0.01 0.00 90 995.8
20260831051119 61 218 2.0 5.0 0.00 0.01 0.00 90 995.8
20260831050020 61 207 2.0 8.0 0.00 0.01 0.00 90 995.8
20260831045021 61 220 2.0 7.0 0.00 0.01 0.00 89 995.6
20260831044017 62 218 3.0 12.0 0.00 0.01 0.00 89 995.6
20260831043018 62 206 2.0 7.0 0.00 0.01 0.00 88 995.5
20260831042019 62 219 2.0 6.0 0.00 0.01 0.00 88 995.6
20260831041020 62 217 2.0 8.0 0.00 0.01 0.00 87 995.6
20260831040036 62 221 3.0 9.0 0.00 0.01 0.00 86 995.6
20260831035017 62 208 3.0 8.0 0.00 0.01 0.00 87 995.6
20260831034018 62 213 3.0 10.0 0.00 0.01 0.00 88 995.6
20260831033019 62 201 4.0 9.0 0.00 0.01 0.00 89 995.8
20260831032020 61 211 4.0 15.0 0.00 0.01 0.00 89 995.8
20260831031016 61 211 3.0 7.0 0.00 0.01 0.00 89 995.7
20260831030017 61 203 3.0 9.0 0.00 0.01 0.00 90 995.6
20260831025018 61 215 3.0 8.0 0.00 0.01 0.00 90 995.6
20260831024039 61 211 2.0 7.0 0.00 0.01 0.00 90 995.5
20260831023015 62 213 4.0 10.0 0.00 0.01 0.00 90 995.4
20260831022016 62 206 2.0 11.0 0.00 0.01 0.00 89 995.3
20260831021017 62 222 3.0 10.0 0.00 0.01 0.00 89 995.3
20260831020018 62 210 3.0 10.0 0.00 0.01 0.00 89 995.3
20260831015019 62 216 5.0 13.0 0.00 0.01 0.00 89 995.3
20260831014015 62 212 4.0 12.0 0.00 0.01 0.00 88 995.3
20260831013017 62 207 3.0 9.0 0.00 0.01 0.00 89 995.4
20260831012018 62 214 2.0 8.0 0.00 0.01 0.00 88 995.4
20260831011018 62 208 4.0 10.0 0.00 0.01 0.00 88 995.4
20260831010020 62 200 4.0 14.0 0.00 0.01 0.00 87 995.4
20260831005016 62 216 2.0 10.0 0.00 0.01 0.00 87 995.4
20260831004037 62 201 2.0 5.0 0.00 0.01 0.00 86 995.4
20260831003017 62 226 3.0 8.0 0.00 0.01 0.00 85 995.3
20260831002019 62 215 3.0 9.0 0.00 0.01 0.00 84 995.3
20260831001020 62 216 3.0 6.0 0.00 0.01 0.00 83 995.4
20260831000016 62 204 3.0 7.0 0.00 0.01 0.00 83 995.4
20260830235016 62 208 3.0 8.0 0.00 0.01 0.00 83 995.4
20260830234018 62 213 4.0 10.0 0.00 0.01 0.00 84 995.4
20260830233059 62 210 4.0 10.0 0.00 0.01 0.00 84 995.5
20260830232020 62 214 2.0 9.0 0.00 0.01 0.00 85 995.5
20260830231016 62 211 2.0 7.0 0.00 0.01 0.00 85 995.4
20260830230016 62 203 2.0 5.0 0.00 0.01 0.00 85 995.4
20260830225038 63 207 3.0 10.0 0.00 0.01 0.00 85 995.4
20260830224039 63 211 3.0 8.0 0.00 0.01 0.00 86 995.5
20260830223020 63 208 1.0 4.0 0.00 0.01 0.00 86 995.4
20260830222056 63 223 2.0 6.0 0.00 0.01 0.00 85 995.4
20260830221017 63 216 3.0 6.0 0.00 0.01 0.00 85 995.3
20260830220018 63 211 3.0 8.0 0.00 0.01 0.00 85 995.3
20260830215019 62 217 2.0 7.0 0.00 0.01 0.01 84 995.3
20260830214040 63 210 1.0 4.0 0.00 0.01 0.01 82 995.3
20260830213016 63 221 1.0 4.0 0.00 0.01 0.01 82 995.3
20260830212018 63 201 1.0 2.0 0.00 0.01 0.01 80 995.1
20260830211039 64 205 1.0 4.0 0.00 0.01 0.01 79 995.1
20260830210020 65 208 1.0 2.0 0.00 0.01 0.01 77 994.9
20260830205016 66 215 1.0 3.0 0.00 0.01 0.01 76 994.9
20260830204017 66 197 2.0 5.0 0.00 0.01 0.01 75 994.7
20260830203018 67 209 3.0 6.0 0.00 0.01 0.01 74 994.6
20260830202019 67 200 2.0 8.0 0.00 0.01 0.01 73 994.5
20260830201020 68 221 3.0 10.0 0.00 0.01 0.01 72 994.6
20260830200016 68 211 3.0 8.0 0.00 0.01 0.01 71 994.5
20260830195017 68 210 2.0 7.0 0.00 0.01 0.01 71 994.5
20260830194038 68 204 2.0 6.0 0.00 0.01 0.01 70 994.5
20260830193119 68 207 3.0 8.0 0.00 0.01 0.01 70 994.5
20260830192015 68 210 2.0 8.0 0.00 0.01 0.01 70 994.4